When you browse on this site, cookies collect data to enhance your experience and personalize the content and advertising you see.
Visit our Privacy Policy to learn more. By continuing to use the site, you agree to this use of cookies and data.
  • In France
  • List of Countries
  • For 7 days
  • Water Temperature
  • Weather Map
  • Weather Widgets
  • user-avatar
    Login

    Hourly Weather Russkiy

    Today, 21 February, Friday

    Time Temperature Precipitation Wind Pressure Humidity
    00:00 -1°C° 0 mm 2 mps 750 mmHg 94%
    01:00 -1°C° 0 mm 2 mps 750 mmHg 94%
    02:00 -2°C° 0 mm 2 mps 750 mmHg 94%
    03:00 -2°C° 0 mm 2 mps 750 mmHg 94%
    04:00 -2°C° 0 mm 2 mps 750 mmHg 94%
    05:00 -2°C° 0 mm 2 mps 750 mmHg 94%
    06:00 -2°C° 0 mm 2 mps 750 mmHg 94%
    07:00 -2°C° 0 mm 2 mps 750 mmHg 94%
    08:00 -1°C° 0 mm 2 mps 750 mmHg 95%
    15:00 +2°C° 0 mm 2 mps 750 mmHg 87%
    16:00 +1°C° 0 mm 2 mps 750 mmHg 89%
    17:00 +1°C° 0 mm 2 mps 750 mmHg 91%
    18:00 -1°C° 0 mm 2 mps 750 mmHg 91%
    19:00 -1°C° 0 mm 2 mps 750 mmHg 91%
    20:00 -1°C° 0 mm 2 mps 751 mmHg 91%
    21:00 -1°C° 0 mm 2 mps 751 mmHg 91%
    22:00 -2°C° 0 mm 2 mps 751 mmHg 91%
    23:00 -2°C° 0 mm 2 mps 751 mmHg 90%

    Tomorrow, 22 February, Saturday

    Time Temperature Precipitation Wind Pressure Humidity
    00:00 -2°C° 0 mm 2 mps 751 mmHg 91%
    01:00 -2°C° 0 mm 2 mps 751 mmHg 91%
    02:00 -2°C° 0 mm 2 mps 752 mmHg 92%
    03:00 -2°C° 0 mm 2 mps 752 mmHg 92%
    04:00 -2°C° 0 mm 2 mps 751 mmHg 92%
    05:00 -2°C° 0 mm 2 mps 751 mmHg 92%
    06:00 -2°C° 0 mm 2 mps 752 mmHg 91%
    07:00 -2°C° 0 mm 2 mps 752 mmHg 91%
    08:00 -2°C° 0 mm 2 mps 752 mmHg 90%
    09:00 -1°C° 0 mm 2 mps 752 mmHg 87%
    10:00 0°C° 0 mm 3 mps 752 mmHg 84%
    11:00 0°C° 0 mm 3 mps 752 mmHg 80%
    12:00 +1°C° 0 mm 3 mps 752 mmHg 79%
    13:00 +1°C° 0 mm 3 mps 752 mmHg 77%
    14:00 0°C° 0 mm 4 mps 752 mmHg 75%
    15:00 0°C° 0 mm 3 mps 751 mmHg 78%
    16:00 0°C° 0 mm 3 mps 750 mmHg 81%
    17:00 -1°C° 0 mm 3 mps 750 mmHg 84%
    18:00 -2°C° 0 mm 4 mps 749 mmHg 84%
    19:00 -2°C° 0 mm 4 mps 749 mmHg 83%
    20:00 -4°C° 0 mm 5 mps 749 mmHg 82%
    21:00 -4°C° 0 mm 6 mps 748 mmHg 82%
    22:00 -3°C° 0 mm 6 mps 747 mmHg 81%
    23:00 -3°C° 0 mm 7 mps 746 mmHg 81%

    Day after tomorrow, 23 February, Sunday

    Time Temperature Precipitation Wind Pressure Humidity
    00:00 -3°C° 0 mm 7 mps 745 mmHg 81%
    01:00 -4°C° 0 mm 8 mps 744 mmHg 81%
    02:00 -4°C° 0 mm 8 mps 743 mmHg 81%
    03:00 -4°C° 0 mm 9 mps 742 mmHg 82%
    04:00 -4°C° 0 mm 9 mps 740 mmHg 83%
    05:00 -4°C° 0 mm 10 mps 739 mmHg 84%
    06:00 -4°C° 0.7 mm 10 mps 738 mmHg 88%
    07:00 -4°C° 0.7 mm 10 mps 737 mmHg 92%
    08:00 -4°C° 0.7 mm 10 mps 736 mmHg 95%
    09:00 -4°C° 0.6 mm 10 mps 735 mmHg 96%
    10:00 -3°C° 0.6 mm 10 mps 735 mmHg 96%
    11:00 -3°C° 0.6 mm 9 mps 734 mmHg 96%
    12:00 -2°C° 0.3 mm 8 mps 733 mmHg 95%
    13:00 -1°C° 0.3 mm 7 mps 733 mmHg 94%
    14:00 0°C° 0.3 mm 5 mps 733 mmHg 93%
    15:00 -1°C° 0.1 mm 4 mps 733 mmHg 95%
    16:00 -1°C° 0.1 mm 4 mps 733 mmHg 96%
    17:00 -1°C° 0.1 mm 3 mps 733 mmHg 97%
    18:00 -2°C° 0.1 mm 4 mps 733 mmHg 95%
    19:00 -2°C° 0.1 mm 4 mps 734 mmHg 93%
    20:00 -2°C° 0.1 mm 4 mps 734 mmHg 91%
    21:00 -2°C° 0 mm 4 mps 734 mmHg 90%
    22:00 -2°C° 0 mm 4 mps 734 mmHg 89%
    23:00 -4°C° 0 mm 5 mps 733 mmHg 88%

    24 February, Monday

    Time Temperature Precipitation Wind Pressure Humidity
    00:00 -4°C° 0 mm 5 mps 733 mmHg 88%
    01:00 -4°C° 0 mm 5 mps 733 mmHg 89%
    02:00 -4°C° 0 mm 5 mps 733 mmHg 89%
    03:00 -3°C° 0 mm 4 mps 733 mmHg 90%
    04:00 -4°C° 0 mm 4 mps 732 mmHg 90%
    05:00 -4°C° 0 mm 4 mps 732 mmHg 91%
    06:00 -4°C° 0 mm 4 mps 732 mmHg 90%
    07:00 -4°C° 0 mm 4 mps 732 mmHg 89%
    08:00 -4°C° 0 mm 4 mps 733 mmHg 89%
    09:00 -3°C° 0 mm 4 mps 733 mmHg 87%
    10:00 -2°C° 0 mm 4 mps 733 mmHg 85%
    11:00 -1°C° 0 mm 4 mps 733 mmHg 83%
    12:00 -1°C° 0 mm 4 mps 733 mmHg 81%
    13:00 -1°C° 0 mm 4 mps 733 mmHg 80%
    14:00 0°C° 0 mm 4 mps 733 mmHg 79%
    15:00 -1°C° 0 mm 4 mps 733 mmHg 84%
    16:00 0°C° 0 mm 3 mps 734 mmHg 88%
    17:00 -1°C° 0 mm 3 mps 734 mmHg 93%
    18:00 -1°C° 0 mm 3 mps 735 mmHg 91%
    19:00 -1°C° 0 mm 3 mps 736 mmHg 88%
    20:00 -3°C° 0 mm 4 mps 736 mmHg 85%
    21:00 -3°C° 0 mm 4 mps 737 mmHg 86%
    22:00 -3°C° 0 mm 4 mps 737 mmHg 86%
    23:00 -3°C° 0 mm 4 mps 738 mmHg 86%

    25 February, Tuesday

    Time Temperature Precipitation Wind Pressure Humidity
    00:00 -4°C° 0 mm 4 mps 738 mmHg 85%
    01:00 -4°C° 0 mm 4 mps 739 mmHg 83%
    02:00 -4°C° 0 mm 4 mps 739 mmHg 81%
    03:00 -4°C° 0 mm 4 mps 740 mmHg 81%
    04:00 -4°C° 0 mm 4 mps 740 mmHg 80%
    05:00 -5°C° 0 mm 4 mps 741 mmHg 80%
    06:00 -5°C° 0 mm 4 mps 741 mmHg 79%
    07:00 -5°C° 0 mm 4 mps 742 mmHg 79%
    08:00 -5°C° 0 mm 4 mps 742 mmHg 78%
    09:00 -4°C° 0 mm 4 mps 743 mmHg 74%
    10:00 -3°C° 0 mm 4 mps 743 mmHg 70%
    11:00 -3°C° 0 mm 4 mps 743 mmHg 66%
    12:00 -2°C° 0 mm 4 mps 743 mmHg 64%
    13:00 -1°C° 0 mm 3 mps 743 mmHg 62%
    14:00 -1°C° 0 mm 3 mps 744 mmHg 61%
    15:00 -1°C° 0 mm 3 mps 743 mmHg 64%
    16:00 -2°C° 0 mm 3 mps 743 mmHg 67%
    17:00 -2°C° 0 mm 2 mps 743 mmHg 71%
    18:00 -4°C° 0 mm 3 mps 743 mmHg 71%
    19:00 -4°C° 0 mm 3 mps 743 mmHg 72%
    20:00 -4°C° 0 mm 4 mps 743 mmHg 72%
    21:00 -4°C° 0 mm 4 mps 743 mmHg 71%
    22:00 -5°C° 0 mm 5 mps 743 mmHg 70%
    23:00 -5°C° 0 mm 5 mps 743 mmHg 69%

    26 February, Wednesday

    Time Temperature Precipitation Wind Pressure Humidity
    00:00 -5°C° 0 mm 5 mps 743 mmHg 69%
    01:00 -5°C° 0 mm 6 mps 742 mmHg 69%
    02:00 -4°C° 0 mm 6 mps 742 mmHg 69%
    03:00 -4°C° 0 mm 6 mps 741 mmHg 71%
    04:00 -4°C° 0 mm 6 mps 741 mmHg 74%
    05:00 -4°C° 0 mm 6 mps 741 mmHg 76%
    06:00 -4°C° 0 mm 6 mps 741 mmHg 78%
    07:00 -4°C° 0 mm 6 mps 740 mmHg 80%
    08:00 -4°C° 0 mm 6 mps 740 mmHg 83%
    09:00 -3°C° 0 mm 6 mps 740 mmHg 79%
    10:00 -3°C° 0 mm 6 mps 740 mmHg 76%
    11:00 -2°C° 0 mm 6 mps 740 mmHg 72%
    12:00 -2°C° 0 mm 6 mps 740 mmHg 71%
    13:00 -1°C° 0 mm 6 mps 739 mmHg 70%
    14:00 0°C° 0 mm 7 mps 739 mmHg 69%
    15:00 -1°C° 0 mm 7 mps 739 mmHg 71%
    16:00 -1°C° 0 mm 6 mps 739 mmHg 74%
    17:00 -1°C° 0 mm 6 mps 738 mmHg 77%
    18:00 -2°C° 0 mm 7 mps 738 mmHg 81%
    19:00 -2°C° 0 mm 7 mps 738 mmHg 85%
    20:00 -2°C° 0 mm 7 mps 738 mmHg 90%
    21:00 -2°C° 0.2 mm 7 mps 737 mmHg 91%
    22:00 -4°C° 0.2 mm 8 mps 737 mmHg 93%
    23:00 -4°C° 0.2 mm 8 mps 737 mmHg 95%
    Show more